STARLINK-1746 (46588 NORAD) Tracking and Keplerian Element Data

This shows tracking and keplerian element data for the satellite.

Feedback or suggestion? Click here.




ElementValue
Catalog46588
NameSTARLINK-1746
Epoch Orbit440
Epoch Day303.25001157
Epoch Year2020
RAAN330.0469
Inclination53
Eccentricity0.0001309
Argument of Perigee63.7249
Mean Anonmoly200.9296
Mean Motion15.62789383
Decay Rate-0.00065233
L11 46588U 20070BJ 20303.25001157 -.00065233 00000-0 -71127-3 0 9991
L22 46588 53.0000 330.0469 0001309 63.7249 200.9296 15.62789383 4408

Live tracking and technical data element details for STARLINK-1746 (NORAD 46588). STARLINK-1746 can be tracked NOW for your location showing map with azimuth and elevation plus other details from your city location.

Track the satellite on the map from your city or location and see movement details for azimuth, elevation, latitude, longitude, range, height, and movement on the map or in text.







IsCatalogInMostPopularTable: catalog: 46588, numindb: 3
Update: records affected: 1



GetName: 46588 STARLINK-1746

Hit Count: updated at: Fri, 30 Oct 2020 02:32:25 GMT